KTKV

Details ICAO KTKV
Name TOMAHAWK RGNL
Region United States
Timezone America/Chicago (UTC-5.0)
Plans Departing 0
Arriving 1
Stats Elevation 1,486 ft / 453 m (AMSL)
Location 45.469139° -89.805695°
Runways 1
Magnetic Variation 2.770° W
Sunrise 2018-05-23 10:22:00 UTC / 2018-05-23 05:22:00 Local
Sunset 2018-05-24 01:32:51 UTC / 2018-05-23 20:32:51 Local
Advertisement - Login to hide

Runways

ID Width Length Bearing (true) Bearing (mag) Surface Threshold Offset Overrun Length
09 75 ft / 23 m 3,981 ft / 1,213 m 89.99° 92.76° Asphalt 0 ft / 0 m 0 ft / 0 m
27 75 ft / 23 m 3,981 ft / 1,213 m 270.01° 272.78° Asphalt 0 ft / 0 m 0 ft / 0 m

Map

Weather


0- 5 10 15 20 25 30 35+ Temperature / ° C

Clouds and Precipitation
Forecast for 2018-05-23 12:00 UTC. Updated 2 hours ago

Ground ~20,000 ft ~40,000 ft Winds

METAR

KTKV 231335Z AUTO 00000KT 10SM CLR 18/14 A3020 RMK AO2 T01790135

TAF

Not found

Frequencies

Recorded 118.25 MHz AWOS 3
Unicom 122.80 MHz CTAF/UNICOM
Warning: Do not use this data for real-world aviation or navigation. No guarantee of current accuracy is given.